SV2BBO-2 Thessaloniki GR current weather conditions

sailwx.info

Wind from 011 at 6 knots gusting 7

Air temperature 13.9° C
Dewpoint -0.9° C

Last reported at 2017-Feb-25 19:48 UTC.
Time now 2017-Feb-25 20:50 UTC

Location: N 40°38' E 022°57'.
View on Google Maps.

See reports from other nearby stations

  
Tides and Currents Weather Stations Pressure Air Temp Water Temp Dewpoint Dewpoint Depression Visibility Wind Speed Wind Dir Waves Ship Positions
date/time (UTC)wind fromknots sea level pressurealtimeterstation pressurevisibilityair tempwater tempwave heightnotes
2017-Feb-25 19:48 011 6 gusting 7 13.9
2017-Feb-25 19:38 020 7 gusting 8 13.9
2017-Feb-25 19:28 350 5 gusting 6 13.9
2017-Feb-25 19:18 354 3 gusting 4 13.9
2017-Feb-25 19:08 103 14.4
2017-Feb-25 18:58 103 14.4
2017-Feb-25 18:48 013 14.4
2017-Feb-25 18:38 036 0 gusting 3 13.9
2017-Feb-25 18:28 304 2 gusting 3 13.9
2017-Feb-25 18:18 338 3 gusting 2 13.9
2017-Feb-25 18:08 351 4 gusting 5 13.9
2017-Feb-25 17:58 305 5 gusting 6 14.4
2017-Feb-25 17:48 314 2 gusting 5 14.4
2017-Feb-25 17:38 319 0 gusting 3 14.4
2017-Feb-25 17:28 020 14.4
2017-Feb-25 17:18 021 14.4
2017-Feb-25 17:08 046 1 gusting 3 13.9
2017-Feb-25 16:58 048 6 gusting 6 13.9
2017-Feb-25 16:48 055 6 gusting 8 13.9
2017-Feb-25 16:38 045 6 gusting 8 13.9
2017-Feb-25 16:28 048 8 gusting 13 13.9
2017-Feb-25 16:18 039 6 gusting 10 14.4
2017-Feb-25 16:08 030 6 gusting 6 14.4
2017-Feb-25 15:58 011 6 gusting 7 15.0
2017-Feb-25 15:48 359 3 gusting 3 15.0
2017-Feb-25 15:38 312 0 gusting 3 15.0
2017-Feb-25 15:28 236 15.0
2017-Feb-25 15:18 236 15.0
2017-Feb-25 15:08 236 0 gusting 2 15.6
2017-Feb-25 14:58 195 2 gusting 3 15.6
2017-Feb-25 14:48 228 3 gusting 4 16.1
2017-Feb-25 14:38 164 0 16.1
2017-Feb-25 14:28 181 2 gusting 3 16.1
2017-Feb-25 14:18 168 0 gusting 2 16.1
2017-Feb-25 14:08 174 2 gusting 2 16.1
2017-Feb-25 13:58 168 16.1
2017-Feb-25 13:48 221 16.1
2017-Feb-25 13:38 221 16.1
2017-Feb-25 13:28 221 16.1
2017-Feb-25 13:18 221 16.1
2017-Feb-25 13:08 221 0 gusting 2 16.7
2017-Feb-25 12:58 203 0 gusting 3 16.7
2017-Feb-25 12:48 213 0 gusting 3 17.8
2017-Feb-25 12:38 252 1 gusting 3 17.8
2017-Feb-25 12:28 281 2 gusting 3 17.2
2017-Feb-25 12:18 206 2 gusting 4 17.8
2017-Feb-25 12:08 218 17.2
2017-Feb-25 11:58 282 2 gusting 2 16.7
2017-Feb-25 11:48 289 2 gusting 3 16.1
2017-Feb-25 11:38 180 1 gusting 2 16.1
2017-Feb-25 11:28 272 2 gusting 3 16.1
2017-Feb-25 11:18 217 3 gusting 4 15.6
2017-Feb-25 11:08 279 15.6
2017-Feb-25 10:58 301 2 gusting 4 15.6
2017-Feb-25 10:48 224 3 gusting 3 15.0
2017-Feb-25 10:38 160 15.0
2017-Feb-25 10:28 108 0 gusting 3 14.4
2017-Feb-25 10:18 084 1 gusting 3 15.0
2017-Feb-25 10:08 136 2 gusting 2 15.0
2017-Feb-25 09:58 182 2 gusting 3 15.0
2017-Feb-25 09:48 181 2 gusting 3 14.4
2017-Feb-25 09:38 244 0 gusting 4 15.0
2017-Feb-25 09:28 223 2 gusting 3 15.0
2017-Feb-25 09:18 094 14.4
2017-Feb-25 09:08 094 1 gusting 2 13.9
2017-Feb-25 08:58 163 13.9
2017-Feb-25 08:48 141 13.9
2017-Feb-25 08:38 147 13.9
2017-Feb-25 08:28 288 13.9
2017-Feb-25 08:18 303 0 gusting 5 13.9
2017-Feb-25 08:08 086 2 gusting 3 13.3
2017-Feb-25 07:58 085 13.3
2017-Feb-25 07:48 084 0 13.3
2017-Feb-25 07:38 222 1 gusting 2 13.3
2017-Feb-25 07:28 221 13.3
2017-Feb-25 07:18 223 12.8
2017-Feb-25 07:08 197 12.8
2017-Feb-25 06:58 112 12.8
2017-Feb-25 06:48 111 1 12.2
2017-Feb-25 06:38 164 1 12.8
2017-Feb-25 06:28 253 12.8
2017-Feb-25 06:18 247 1 gusting 3 12.2
2017-Feb-25 06:08 223 12.2
2017-Feb-25 05:58 190 12.8
2017-Feb-25 05:48 284 12.2
2017-Feb-25 05:38 157 12.2
2017-Feb-25 05:28 187 12.2
2017-Feb-25 05:18 202 12.2
2017-Feb-25 05:08 201 2 gusting 3 12.2
2017-Feb-25 04:58 252 0 gusting 3 12.2
2017-Feb-25 04:48 286 2 12.2
2017-Feb-25 04:38 279 0 gusting 3 12.2
2017-Feb-25 04:28 292 2 gusting 3 12.2
2017-Feb-25 04:18 232 12.2
2017-Feb-25 04:08 225 12.8
2017-Feb-25 03:58 259 12.8
2017-Feb-25 03:48 132 0 gusting 3 12.8
2017-Feb-25 03:38 080 12.8
2017-Feb-25 03:28 080 12.8
2017-Feb-25 03:18 080 12.8
2017-Feb-25 03:08 054 12.8
2017-Feb-25 02:58 073 2 gusting 3 12.8
2017-Feb-25 02:48 095 12.8
2017-Feb-25 02:38 131 0 gusting 2 12.8
2017-Feb-25 02:28 200 2 gusting 2 12.8
2017-Feb-25 02:18 211 12.8
2017-Feb-25 02:08 210 12.8
2017-Feb-25 01:58 173 1 gusting 3 12.2
2017-Feb-25 01:48 213 2 gusting 3 12.8
2017-Feb-25 01:38 238 12.8
2017-Feb-25 01:28 157 12.8
2017-Feb-25 01:18 153 12.8
2017-Feb-25 01:08 153 12.8
2017-Feb-25 00:58 122 2 gusting 3 12.8
2017-Feb-25 00:48 121 12.8
2017-Feb-25 00:38 122 12.8
2017-Feb-25 00:28 125 12.8
2017-Feb-25 00:18 117 13.3
2017-Feb-25 00:08 117 13.3
2017-Feb-24 23:58 117 0 13.3
2017-Feb-24 23:48 117 13.3
2017-Feb-24 23:38 210 13.3
2017-Feb-24 23:28 158 13.3
2017-Feb-24 23:18 110 13.3
2017-Feb-24 23:08 110 13.3
2017-Feb-24 22:58 111 13.3
2017-Feb-24 22:48 111 13.3
2017-Feb-24 22:38 110 13.3
2017-Feb-24 22:28 141 13.3
2017-Feb-24 22:18 116 13.3
2017-Feb-24 22:08 236 13.3
2017-Feb-24 21:58 108 13.3
2017-Feb-24 21:48 105 13.3
2017-Feb-24 21:38 105 13.3
2017-Feb-24 21:28 105 13.3
2017-Feb-24 21:18 105 13.3
2017-Feb-24 21:08 105 13.9
2017-Feb-24 20:58 105 2 gusting 2 13.9
2017-Feb-24 20:48 111 2 gusting 2 13.9
2017-Feb-24 20:38 136 13.9
2017-Feb-24 20:28 136 13.9
2017-Feb-24 20:18 286 13.9
2017-Feb-24 20:08 076 14.4
2017-Feb-24 19:58 076 13.9
2017-Feb-24 19:48 076 13.9
2017-Feb-24 19:38 045 14.4
2017-Feb-24 19:28 045 14.4
2017-Feb-24 19:18 045 14.4
2017-Feb-24 19:08 049 1 gusting 2 14.4
2017-Feb-24 18:58 073 14.4
2017-Feb-24 18:48 073 15.0
2017-Feb-24 18:38 073 15.0
2017-Feb-24 18:28 073 15.0
2017-Feb-24 18:18 073 2 gusting 3 15.0
2017-Feb-24 18:08 034 15.0
2017-Feb-24 17:58 228 2 gusting 2 15.0
2017-Feb-24 17:48 273 15.0
2017-Feb-24 17:38 287 2 gusting 4 15.0
2017-Feb-24 17:28 326 3 gusting 3 15.0
2017-Feb-24 17:18 304 1 gusting 3 15.6
2017-Feb-24 17:08 294 2 gusting 5 15.6
2017-Feb-24 16:58 280 0 gusting 3 15.6
2017-Feb-24 16:48 288 3 gusting 4 15.6
2017-Feb-24 16:38 281 2 gusting 5 15.6
2017-Feb-24 16:28 295 2 gusting 3 15.6
2017-Feb-24 16:18 295 15.6
2017-Feb-24 16:08 290 16.1
2017-Feb-24 15:58 302 3 gusting 5 16.1
2017-Feb-24 15:48 315 3 gusting 3 16.1
2017-Feb-24 15:38 301 16.7
2017-Feb-24 15:28 328 2 gusting 4 16.7
2017-Feb-24 15:18 296 2 gusting 5 16.7
2017-Feb-24 15:08 280 3 gusting 3 16.7
2017-Feb-24 14:58 289 3 gusting 5 16.7
2017-Feb-24 14:48 297 2 gusting 3 16.7
2017-Feb-24 14:38 310 16.7
2017-Feb-24 14:28 278 2 gusting 3 16.7
2017-Feb-24 14:18 207 2 gusting 2 16.7
2017-Feb-24 14:08 162 2 gusting 4 16.7
2017-Feb-24 13:58 222 3 gusting 6 16.7
2017-Feb-24 13:48 199 2 gusting 3 16.7
2017-Feb-24 13:38 181 3 gusting 4 17.2
2017-Feb-24 13:28 228 3 gusting 4 17.2
2017-Feb-24 13:18 193 3 gusting 3 17.2
2017-Feb-24 13:08 220 3 gusting 3 16.7
2017-Feb-24 12:58 237 3 gusting 4 17.2
2017-Feb-24 12:48 181 2 gusting 2 17.8
2017-Feb-24 12:38 224 5 gusting 6 18.3
2017-Feb-24 12:28 181 3 gusting 4 18.3
2017-Feb-24 12:18 183 0 gusting 2 17.8
2017-Feb-24 12:08 218 2 gusting 3 17.8
2017-Feb-24 11:58 193 2 gusting 3 17.2
2017-Feb-24 11:48 220 3 gusting 5 17.2
2017-Feb-24 11:38 199 2 gusting 3 16.7
2017-Feb-24 11:28 204 3 gusting 4 16.7
2017-Feb-24 11:18 203 3 gusting 4 16.7
2017-Feb-24 11:08 201 2 gusting 3 16.7
2017-Feb-24 10:58 228 2 gusting 3 16.7
2017-Feb-24 10:48 215 2 gusting 4 16.7
2017-Feb-24 10:38 247 2 gusting 4 16.1
2017-Feb-24 10:28 190 15.6
2017-Feb-24 10:18 190 15.0
2017-Feb-24 10:08 190 1 gusting 2 15.0
2017-Feb-24 09:58 161 0 gusting 3 15.0
2017-Feb-24 09:48 201 3 gusting 4 15.0
2017-Feb-24 09:38 218 3 gusting 3 15.0
2017-Feb-24 09:28 230 3 gusting 3 14.4
2017-Feb-24 09:18 277 1 gusting 3 14.4
2017-Feb-24 09:08 257 14.4
2017-Feb-24 08:58 277 2 gusting 2 13.9
2017-Feb-24 08:48 198 2 gusting 3 13.9
2017-Feb-24 08:38 217 2 gusting 3 13.3
2017-Feb-24 08:28 216 3 gusting 4 13.9
2017-Feb-24 08:18 203 3 gusting 3 13.9
2017-Feb-24 08:08 192 13.3
2017-Feb-24 07:58 217 2 gusting 3 13.3
2017-Feb-24 07:48 266 1 gusting 3 13.3
2017-Feb-24 07:38 217 2 gusting 2 13.3
2017-Feb-24 07:28 215 3 gusting 4 13.3
2017-Feb-24 07:18 220 1 gusting 3 13.3
2017-Feb-24 07:08 279 12.8
2017-Feb-24 06:58 314 1 gusting 3 12.8
2017-Feb-24 06:48 289 12.2
2017-Feb-24 06:38 085 1 gusting 2 11.7
2017-Feb-24 06:28 085 11.1
2017-Feb-24 06:18 085 10.6
2017-Feb-24 06:08 103 11.1
2017-Feb-24 05:58 202 2 gusting 3 10.6
2017-Feb-24 05:48 077 10.0
2017-Feb-24 05:38 077 10.0
2017-Feb-24 05:28 077 10.0
2017-Feb-24 05:18 077 10.0
2017-Feb-24 05:08 077 10.0
2017-Feb-24 04:58 106 10.0
2017-Feb-24 04:48 106 10.0
2017-Feb-24 04:38 109 2 gusting 2 10.0
2017-Feb-24 04:28 077 10.0
2017-Feb-24 04:18 078 10.6
2017-Feb-24 04:08 078 10.6
2017-Feb-24 03:58 079 10.6
2017-Feb-24 03:48 100 10.6
2017-Feb-24 03:38 147 10.6
2017-Feb-24 03:28 190 2 gusting 3 10.6
2017-Feb-24 03:18 230 10.6
2017-Feb-24 03:08 241 10.6
2017-Feb-24 02:58 241 11.1
2017-Feb-24 02:48 153 2 gusting 3 10.6
2017-Feb-24 02:41 085 10.6
2017-Feb-24 02:31 114 2 gusting 2 10.6
2017-Feb-24 02:21 104 10.6
2017-Feb-24 02:11 104 11.1
2017-Feb-24 02:01 104 11.1
2017-Feb-24 01:51 104 11.1
2017-Feb-24 01:41 104 11.1
2017-Feb-24 01:31 104 11.1
2017-Feb-24 01:21 104 11.1
2017-Feb-24 01:11 104 11.1
2017-Feb-24 01:01 111 11.1
2017-Feb-24 00:51 111 1 gusting 2 11.7
2017-Feb-24 00:41 111 11.7
2017-Feb-24 00:31 111 11.7
2017-Feb-24 00:21 111 11.7
2017-Feb-24 00:11 111 11.7
2017-Feb-24 00:01 111 11.7
2017-Feb-23 23:51 111 11.7
2017-Feb-23 23:41 200 12.2
2017-Feb-23 23:31 077 12.2
2017-Feb-23 23:21 077 12.2
2017-Feb-23 23:11 077 12.2
2017-Feb-23 23:01 077 12.2
2017-Feb-23 22:51 078 12.2
2017-Feb-23 22:41 078 12.2
2017-Feb-23 22:31 078 12.8
2017-Feb-23 22:21 075 12.8
2017-Feb-23 22:11 075 12.8
2017-Feb-23 22:01 075 2 gusting 2 12.8
2017-Feb-23 21:51 075 13.3
2017-Feb-23 21:41 075 13.3
2017-Feb-23 21:31 075 13.3
2017-Feb-23 21:21 075 13.3
2017-Feb-23 21:11 075 13.3
2017-Feb-23 21:01 075 13.3
2017-Feb-23 20:51 075 13.3
2017-Feb-23 20:41 089 13.9
2017-Feb-23 20:31 089 13.9
2017-Feb-23 20:21 297 14.4
2017-Feb-23 20:11 280 1 gusting 3 13.9
2017-Feb-23 20:01 297 1 gusting 3 13.9